User: anonymous   Login
Location: *
(42.0175°N, 9.4056°E)
Time: 11:59:49
(UTC+00:00)
Language:

MOS 1 Rocket - Orbit

View from above orbital plane
View from above orbital plane
View from above satellite
View from above satellite

Ground track
Ground track

The orbit data is extracted from the following two-line orbital elements,

1 17528U 87018B   19295.10258224 -.00000006  00000-0  77078-5 0  9998
2 17528  97.4430 167.0751 0152801 133.4226 227.9807 14.50942820724123
Epoch (UTC): 22 October 2019 02:27:43
Eccentricity: 0.0152801
inclination: 97.4430°
perigee height: 614 km
apogee height: 831 km
right ascension of ascending node: 167.0751°
argument of perigee: 133.4226°
revolutions per day: 14.50942820
mean anomaly at epoch: 227.9807°
orbit number at epoch: 72412

The dashed part of the orbit path shows where the satellite is in the earth's shadow,  

DLR